Time,TemperatureF,DewpointF,PressureIn,WindDirection,WindDirectionDegrees,WindSpeedMPH,WindSpeedGustMPH,Humidity,HourlyPrecipIn,Conditions,Clouds,dailyrainin,SoftwareType,DateUTC
2013-07-23 00:32:00,71.0,-99.9,29.78,ENE,76,-999.0,-999.0,-999,0.00,,,-99.99,,2013-07-23 04:32:00,
2013-07-23 00:43:00,71.0,-99.9,29.78,ENE,76,-999.0,-999.0,-999,0.00,,,-99.99,,2013-07-23 04:43:00,
2013-07-23 00:52:00,72.0,-99.9,29.76,ENE,76,-999.0,-999.0,-999,-99.99,,,-99.99,,2013-07-23 04:52:00,
2013-07-23 01:33:00,72.0,-99.9,29.76,ENE,76,-999.0,-999.0,-999,-99.99,,,-99.99,,2013-07-23 05:33:00,
2013-07-23 01:44:00,72.0,-99.9,29.76,ENE,76,-999.0,-999.0,-999,-99.99,,,-99.99,,2013-07-23 05:44:00,
2013-07-23 01:52:00,73.0,-99.9,29.74,East,93,-999.0,-999.0,-999,0.00,,,-99.99,,2013-07-23 05:52:00,
2013-07-23 02:33:00,73.0,-99.9,29.74,East,93,-999.0,-999.0,-999,0.00,,,-99.99,,2013-07-23 06:33:00,
2013-07-23 02:42:00,73.0,-99.9,29.74,East,93,-999.0,-999.0,-999,0.00,,,-99.99,,2013-07-23 06:42:00,
2013-07-23 02:52:00,70.0,-99.9,29.71,ESE,123,-999.0,3.0,-999,0.00,,,-99.99,,2013-07-23 06:52:00,
2013-07-23 03:33:00,70.0,-99.9,29.71,ESE,123,-999.0,3.0,-999,0.00,,,-99.99,,2013-07-23 07:33:00,
2013-07-23 03:42:00,70.0,-99.9,29.71,ESE,123,-999.0,3.0,-999,0.00,,,-99.99,,2013-07-23 07:42:00,
2013-07-23 03:52:00,70.0,-99.9,29.68,East,94,-999.0,-999.0,-999,0.01,,,-99.99,,2013-07-23 07:52:00,
2013-07-23 04:43:00,70.0,-99.9,29.68,East,94,-999.0,-999.0,-999,0.01,,,-99.99,,2013-07-23 08:43:00,
2013-07-23 04:52:00,71.0,-99.9,29.67,South,169,3.0,6.0,-999,0.00,,,-99.99,,2013-07-23 08:52:00,
2013-07-23 05:43:00,71.0,-99.9,29.67,South,169,3.0,6.0,-999,0.00,,,-99.99,,2013-07-23 09:43:00,
2013-07-23 05:52:00,70.0,-99.9,29.68,SW,219,-999.0,-999.0,-999,0.00,,,-99.99,,2013-07-23 09:52:00,
2013-07-23 06:32:00,70.0,-99.9,29.68,SW,219,-999.0,-999.0,-999,0.00,,,-99.99,,2013-07-23 10:32:00,
2013-07-23 06:44:00,70.0,-99.9,29.68,SW,219,-999.0,-999.0,-999,0.00,,,-99.99,,2013-07-23 10:44:00,
2013-07-23 06:52:00,69.0,-99.9,29.69,West,271,-999.0,-999.0,-999,0.00,,,-99.99,,2013-07-23 10:52:00,
2013-07-23 07:43:00,69.0,-99.9,29.69,West,271,-999.0,-999.0,-999,0.00,,,-99.99,,2013-07-23 11:43:00,
2013-07-23 08:33:00,70.0,-99.9,29.69,West,271,-999.0,5.0,-999,0.01,,,-99.99,,2013-07-23 12:33:00,
2013-07-23 08:43:00,70.0,-99.9,29.69,West,271,-999.0,5.0,-999,0.01,,,-99.99,,2013-07-23 12:43:00,
2013-07-23 08:52:00,70.0,-99.9,29.67,WNW,302,-999.0,6.0,-999,0.00,,,-99.99,,2013-07-23 12:52:00,
2013-07-23 09:32:00,70.0,-99.9,29.67,WNW,302,-999.0,6.0,-999,0.00,,,-99.99,,2013-07-23 13:32:00,
2013-07-23 09:43:00,70.0,-99.9,29.67,WNW,302,-999.0,6.0,-999,0.00,,,-99.99,,2013-07-23 13:43:00,
2013-07-23 09:52:00,72.0,-99.9,29.67,WNW,299,3.0,9.0,-999,0.00,,,-99.99,,2013-07-23 13:52:00,
2013-07-23 10:44:00,72.0,-99.9,29.67,WNW,299,3.0,9.0,-999,0.00,,,-99.99,,2013-07-23 14:44:00,
2013-07-23 11:52:00,78.0,-99.9,29.64,NW,325,5.0,10.0,-999,0.00,,,-99.99,,2013-07-23 15:52:00,
2013-07-23 12:43:00,78.0,-99.9,29.64,NW,325,5.0,10.0,-999,0.00,,,-99.99,,2013-07-23 16:43:00,
2013-07-23 12:52:00,82.0,-99.9,29.64,WSW,252,9.0,10.0,-999,0.00,,,-99.99,,2013-07-23 16:52:00,
2013-07-23 13:33:00,82.0,-99.9,29.64,WSW,252,9.0,10.0,-999,0.00,,,-99.99,,2013-07-23 17:33:00,
2013-07-23 13:42:00,82.0,-99.9,29.64,WSW,252,9.0,10.0,-999,0.00,,,-99.99,,2013-07-23 17:42:00,
2013-07-23 14:52:00,82.0,-99.9,29.60,WSW,250,5.0,12.0,-999,0.00,,,-99.99,,2013-07-23 18:52:00,
2013-07-23 15:36:00,82.0,-99.9,29.60,WSW,250,5.0,12.0,-999,0.00,,,-99.99,,2013-07-23 19:36:00,
2013-07-23 15:52:00,74.0,-99.9,29.60,SE,129,-999.0,21.0,-999,0.01,,,-99.99,,2013-07-23 19:52:00,
2013-07-23 16:52:00,82.0,-99.9,29.59,WNW,292,8.0,11.0,-999,0.00,,,-99.99,,2013-07-23 20:52:00,
2013-07-23 17:39:00,82.0,-99.9,29.59,WNW,292,8.0,11.0,-999,0.00,,,-99.99,,2013-07-23 21:39:00,
2013-07-23 17:48:00,82.0,-99.9,29.59,WNW,292,8.0,11.0,-999,0.00,,,-99.99,,2013-07-23 21:48:00,
2013-07-23 17:52:00,81.0,-99.9,29.58,WNW,282,3.0,10.0,-999,0.00,,,-99.99,,2013-07-23 21:52:00,
2013-07-23 18:47:00,81.0,-99.9,29.58,WNW,282,3.0,10.0,-999,0.00,,,-99.99,,2013-07-23 22:47:00,
2013-07-23 18:52:00,81.0,-99.9,29.58,WNW,288,6.0,14.0,-999,0.00,,,-99.99,,2013-07-23 22:52:00,
2013-07-23 19:38:00,81.0,-99.9,29.58,WNW,288,6.0,14.0,-999,0.00,,,-99.99,,2013-07-23 23:38:00,
2013-07-23 19:47:00,81.0,-99.9,29.58,WNW,288,6.0,14.0,-999,0.00,,,-99.99,,2013-07-23 23:47:00,
2013-07-23 20:34:00,77.0,-99.9,29.59,NNW,334,-999.0,-999.0,-999,0.00,,,-99.99,,2013-07-24 00:34:00,
2013-07-23 20:50:00,77.0,-99.9,29.59,NNW,334,-999.0,-999.0,-999,0.00,,,-99.99,,2013-07-24 00:50:00,
2013-07-23 20:52:00,72.0,-99.9,29.61,NNW,334,-999.0,-999.0,-999,0.00,,,-99.99,,2013-07-24 00:52:00,
2013-07-23 21:35:00,72.0,-99.9,29.61,NNW,334,-999.0,-999.0,-999,0.00,,,-99.99,,2013-07-24 01:35:00,
2013-07-23 21:48:00,72.0,-99.9,29.61,NNW,334,-999.0,-999.0,-999,0.00,,,-99.99,,2013-07-24 01:48:00,
2013-07-23 22:40:00,70.0,-99.9,29.63,NNW,334,-999.0,-999.0,-999,0.00,,,-99.99,,2013-07-24 02:40:00,
2013-07-23 22:49:00,70.0,-99.9,29.63,NNW,334,-999.0,-999.0,-999,0.00,,,-99.99,,2013-07-24 02:49:00,
2013-07-23 22:52:00,69.0,-99.9,29.63,NNW,334,-999.0,-999.0,-999,0.00,,,-99.99,,2013-07-24 02:52:00,
2013-07-23 23:47:00,69.0,-99.9,29.63,NNW,334,-999.0,-999.0,-999,0.00,,,-99.99,,2013-07-24 03:47:00,
2013-07-23 23:52:00,69.0,-99.9,29.64,NNW,334,-999.0,-999.0,-999,0.00,,,-99.99,,2013-07-24 03:52:00,